User: anonymous   Login
Location: Unspecified
(0.0000°N, 0.0000°E)
Time: 05:10:22
(UTC+02:00)
Language:

Delta 168 - Orbit

View from above orbital plane
View from above orbital plane
View from above satellite
View from above satellite

Ground track
Ground track

The orbit data is extracted from the following two-line orbital elements,

1 14051U 83041B   16242.48706052  .00002142  00000-0  19023-3 0  9991
2 14051  25.3320   0.7670 1101894 123.1412 247.9671 13.07404383540217
Epoch (UTC): 29 August 2016 11:41:22
Eccentricity: 0.1101894
inclination: 25.3320°
perigee height: 394 km
apogee height: 2072 km
right ascension of ascending node: 0.7670°
argument of perigee: 123.1412°
revolutions per day: 13.07404383
mean anomaly at epoch: 247.9671°
orbit number at epoch: 54021

The dashed part of the orbit path shows where the satellite is in the earth's shadow,  

DLR